Regional Weather Roundup
Issued by NWS

Home | Current Version | Previous Version | Text Only | Print | Product List | Glossary On
Versions: 1 2 3 4 5 6 7 8 9 10 11 12 13 14 15 16 17 18 19 20 21 22 23 24 25 26 27 28 29 30 31 32 33 34 35 36 37 38 39 40 41 42 43 44 45 46 47 48 49 50
000
ASUS43 KFSD 200810
RWRSD

WEATHER ROUNDUP FOR SOUTH DAKOTA
NATIONAL WEATHER SERVICE SIOUX FALLS SD
300 AM CDT FRI OCT 20 2017

NOTE: "FAIR" INDICATES FEW OR NO CLOUDS BELOW 12,000 FEET WITH NO
SIGNIFICANT WEATHER AND/OR OBSTRUCTIONS TO VISIBILITY.


SDZ001>005-009-010-012>017-200900-
NORTHWEST AND NORTH CENTRAL SOUTH DAKOTA

CITY           SKY/WX    TMP DP  RH WIND       PRES   REMARKS
BUFFALO          N/A     51  25  36 SE7       29.50F
MOBRIDGE       CLEAR     58  48  69 SE14      29.59F
$$

SDZ012>016-024>037-041>051-057-063-072>074-200900-
SOUTHWEST AND SOUTH CENTRAL SOUTH DAKOTA

CITY           SKY/WX    TMP DP  RH WIND       PRES   REMARKS
RAPID CTY ARPT PTCLDY    53  27  36 S7        29.65F
PIERRE         CLEAR     64  47  53 S8        29.65S
CUSTER         PTCLDY    59  21  23 SW8       29.78F
ELLSWORTH AFB  MOCLDY    56  25  30 SE6       29.63F
PHILIP         CLEAR     63  47  55 S9        29.63F
PINE RIDGE     CLEAR     62  42  47 S16       29.71F
SPEARFISH      FAIR      63  28  27 SW8       29.65F
WINNER         FAIR      66  44  45 S22G32    29.72F
$$

SDZ004>011-016>023-039-040-200900-
NORTHEAST SOUTH DAKOTA

CITY           SKY/WX    TMP DP  RH WIND       PRES   REMARKS
ABERDEEN       CLEAR     56  49  77 S14       29.69F
WATERTOWN      FAIR      53  50  89 S10       29.78F
BROOKINGS      FAIR      56  49  77 S12       29.83F
$$

SDZ017-020-022-023-036>040-048>070-200900-
SOUTHEAST SOUTH DAKOTA

CITY           SKY/WX    TMP DP  RH WIND       PRES   REMARKS
SIOUX FALLS    FAIR      60  50  69 S12       29.85F
HURON          PTCLDY    57  50  77 S15       29.74F
CHAMBERLAIN    PTCLDY    65  47  52 S5        29.73S
MITCHELL       PTCLDY    59  49  69 S15       29.78F
YANKTON        FAIR      60  48  64 S12       29.85F
$$

ABBREVIATIONS USED IN REMARKS
   TC - TEMPERATURE IN CELSIUS
  WCI - WIND CHILL INDEX
   HX - HEAT INDEX
  VSB - VISIBILITY





USA.gov is the U.S. government's official web portal to all federal, state and local government web resources and services.